EHI
6 6 5 4 2 1 0 0 0 1 2 3 2 1 0 0 0 0 0 0 0 0 0 0 0 0 0 0 0 0 0 0 0 0 0 0 0 0 0 0 0 0 0
6 5 4 3 1 0 0 0 0 0 1 2 2 1 0 0 0 0 0 0 0 0 0 0 0 0 0 0 0 0 0 0 0 0 0 0 0 0 0 0 0 0 0
6 4 3 2 1 1 1 1 0 0 0 1 1 0 0 0 0 0 0 0 0 0 0 0 0 0 0 0 0 0 0 0 0 0 0 0 0 0 0 0 0 0 0
6 5 5 4 3 2 2 2 1 1 0 0 0 0 0 0 0 0 0 0 0 0 0 0 0 0 0 0 0 0 0 0 0 0 0 0 0 0 0 0 0 0 0
5 6 5 5 4 3 3 3 3 2 1 1 1 0 0 0 0 0 0 0 0 0 0 0 0 0 0 0 0 0 0 0 0 0 0 0 0 0 0 0 0 0 0
4 4 5 4 4 3 3 3 2 2 2 2 1 0 0 0 0 0 0 0 0 0 0 0 0 0 0 0 0 0 0 0 0 0 0 0 0 0 0 0 0 0 0
3 4 4 5 4 3 3 2 1 1 1 1 1 0 0 0 0 0 0 0 0 0 0 0 0 0 0 0 0 0 0 0 0 0 0 0 0 0 0 0 0 0 0
3 4 5 5 4 3 2 1 0 0 0 0 0 0 0 0 0 0 0 0 0 0 0 0 0 0 0 0 0 0 0 0 0 0 0 0 0 0 0 0 0 0 0
3 4 5 5 3 1 1 1 0 0 0 0 0 0 0 0 0 0 0 0 0 0 0 0 0 0 0 0 0 0 0 0 0 0 0 0 0 0 0 0 0 0 0
2 3 3 3 2 1 0 0 1 1 1 0 0 0 0 0 0 0 0 0 0 0 0 0 0 0 0 0 0 0 0 0 0 0 0 0 0 0 0 0 0 0 0
1 1 1 1 1 0 0 1 2 2 1 0 0 0 0 0 0 0 0 0 0 0 0 0 0 0 0 0 0 0 0 0 0 0 0 0 0 0 0 0 0 0 0
1 1 0 0 0 0 0 1 2 2 1 0 0 0 0 0 0 0 0 0 0 0 0 0 0 0 0 0 0 0 0 0 0 0 0 0 0 0 0 0 0 0 0
0 0 0 0 0 0 0 1 1 1 1 0 0 0 0 0 0 0 0 0 0 0 0 0 0 0 0 0 0 0 0 0 0 0 0 0 0 0 0 0 0 0 0
0 0 0 0 0 0 0 0 0 0 0 0 0 0 0 0 0 0 0 0 0 0 0 0 0 0 0 0 0 0 0 0 0 0 0 0 0 0 0 0 0 0 0
0 0 0 0 0 0 0 0 0 0 0 0 0 0 0 0 0 0 0 0 0 0 0 0 0 0 0 0 0 0 0 0 0 0 0 0 0 0 0 0 0 0 0
0 0 0 0 0 0 0 0 0 0 0 0 0 0 0 0 0 0 0 0 0 0 0 0 0 0 0 0 0 0 0 0 0 0 0 0 0 0 0 0 0 0 0
0 0 0 0 0 0 0 0 0 0 0 0 0 0 0 0 0 0 0 0 0 0 0 0 0 0 0 0 0 0 0 0 0 0 0 0 0 0 0 0 0 0 0
0 0 0 0 0 0 0 0 0 0 0 0 0 0 0 0 0 0 0 0 0 0 0 0 0 0 0 0 0 0 0 0 0 0 0 0 0 0 0 0 0 0 0
0 0 0 0 0 0 0 0 0 0 0 0 0 0 0 0 0 0 0 0 0 0 0 0 0 0 0 0 0 0 0 0 0 0 0 0 0 0 0 0 0 0 0
0 0 0 0 0 0 0 0 0 0 0 0 0 0 0 0 0 0 0 0 0 0 0 0 0 0 0 0 0 0 0 0 0 0 0 0 0 0 0 0 0 0 0
0 0 0 0 0 0 0 0 0 0 0 0 0 0 0 0 0 0 0 0 0 0 0 0 0 0 0 0 0 0 0 0 0 0 0 0 0 0 0 0 0 0 0
0 0 0 0 0 0 0 0 0 0 0 0 0 0 0 0 0 0 0 0 0 0 0 0 0 0 0 0 0 0 0 0 0 0 0 0 0 0 0 0 0 0 0
0 0 0 0 0 0 0 0 0 0 0 0 0 0 0 0 0 0 0 0 0 0 0 0 0 0 0 0 0 0 0 0 0 0 0 0 0 0 0 0 0 0 0
0 0 0 0 0 0 0 0 0 0 0 0 0 0 0 0 0 0 0 0 0 0 0 0 0 0 0 0 0 0 0 0 0 0 0 0 0 0 0 0 0 0 0
0 0 0 0 0 0 0 0 0 0 0 0 0 0 0 0 0 0 0 0 0 0 0 0 0 0 0 0 0 0 0 0 0 0 0 0 0 0 0 0 0 0 0
0 0 0 0 0 0 0 0 0 0 0 0 0 0 0 0 0 0 0 0 0 0 0 0 0 0 0 0 0 0 0 0 0 0 0 0 0 0 0 0 0 0 0
Wind_Speed
5 4 4 5 5 5 5 6 6 6 7 7 7 7 7 7 6 6 6 6 7 6 5 6 6 4 3 3 3 3 3 3 4 3 2 2 3 4 3 3 4 4 5
5 4 4 4 4 5 5 5 6 6 6 6 6 6 6 6 6 7 7 7 7 7 6 6 5 4 4 3 3 4 4 4 4 4 2 2 3 3 3 3 3 3 4
4 4 4 4 4 4 5 5 5 6 6 5 6 6 6 6 6 6 6 7 7 6 6 6 5 5 4 3 4 4 3 3 3 3 3 2 2 1 1 2 2 2 3
4 4 4 4 4 4 4 4 4 5 5 5 5 5 5 5 5 5 5 5 5 5 5 5 4 5 5 4 4 4 4 3 3 3 3 2 2 2 1 2 2 2 3
4 4 4 3 3 3 3 3 3 4 4 4 4 3 3 4 4 5 5 5 5 4 3 3 3 4 4 4 3 3 3 3 2 3 3 2 2 2 2 2 3 2 3
4 4 3 3 3 3 3 3 3 3 3 3 3 3 3 2 4 6 5 4 4 4 3 3 2 3 4 4 4 4 4 4 4 3 3 3 3 3 2 2 2 2 3
4 4 4 4 4 3 3 3 3 3 3 3 3 3 3 2 4 5 6 4 3 2 2 2 1 1 1 1 1 2 3 4 5 4 4 4 4 3 2 2 3 3 4
4 4 4 5 4 4 4 4 4 3 4 3 3 3 3 3 4 5 5 4 3 2 2 1 1 0 0 1 1 1 1 1 2 3 3 4 3 2 3 3 3 3 3
4 3 4 5 5 5 5 4 4 4 4 4 4 5 4 4 5 4 4 3 3 2 2 2 1 1 1 1 1 1 0 1 1 0 0 1 1 1 0 0 1 1 3
4 4 4 5 6 6 5 5 5 5 5 5 6 5 5 4 5 4 3 3 3 2 2 2 3 2 2 1 1 1 1 1 1 1 2 2 2 2 1 1 1 2 2
5 6 6 5 6 6 5 5 6 6 6 6 7 6 6 6 6 7 5 3 3 3 3 3 3 4 4 4 3 2 1 1 1 1 2 2 2 2 2 1 2 2 3
7 8 7 6 6 6 7 6 6 6 6 6 6 6 5 5 7 7 8 6 5 5 4 3 4 7 7 6 4 4 4 3 2 2 2 2 3 3 3 3 3 3 4
8 8 8 8 7 7 7 7 6 5 5 5 5 5 4 4 5 8 9 10 9 6 5 8 8 8 7 6 8 7 5 3 3 3 3 3 3 3 3 3 3 3 4
9 8 8 8 9 8 7 6 6 5 5 5 5 5 4 4 4 4 5 5 7 6 5 7 8 9 7 7 6 5 4 4 3 3 3 3 3 3 3 3 3 4 4
9 8 8 8 8 9 9 7 7 6 4 5 4 4 4 4 4 5 5 4 4 4 4 5 5 5 6 5 5 5 4 4 4 3 3 3 3 4 4 4 3 3 3
9 8 6 6 7 7 8 9 15 12 13 12 9 7 7 7 8 10 11 10 9 7 6 6 6 5 5 5 5 5 4 4 4 4 3 4 4 4 4 4 4 4 4
9 7 6 6 6 6 6 7 8 9 14 15 13 12 11 10 10 10 11 12 11 9 7 6 5 5 5 4 4 4 4 5 4 4 4 4 4 4 4 5 5 5 5
8 8 7 6 6 6 6 6 6 7 6 6 9 12 11 11 11 10 9 9 8 8 6 5 5 4 4 4 4 4 4 5 4 4 4 4 4 5 5 5 5 6 6
7 6 6 6 6 6 6 6 6 7 7 6 5 6 9 9 11 11 8 7 6 5 5 4 4 4 4 4 4 4 4 4 5 5 4 5 5 5 5 5 6 7 6
7 10 9 7 6 6 6 6 6 6 6 5 5 4 3 5 6 6 6 5 5 4 4 4 4 4 4 4 4 4 4 4 5 5 5 5 5 5 6 7 6 6 6
6 8 10 8 6 6 6 6 6 6 6 5 4 4 4 5 5 5 4 4 4 4 3 3 3 4 4 4 4 4 5 5 5 5 5 5 5 5 5 5 6 6 6
6 6 6 6 6 6 6 6 6 6 6 6 5 5 7 5 4 4 4 4 4 3 3 3 3 3 4 4 4 4 5 5 5 5 5 5 5 6 6 6 6 6 6
7 7 7 6 6 7 6 6 5 5 5 5 5 4 4 4 4 4 4 4 4 4 4 3 3 4 4 4 4 4 4 5 5 5 6 6 5 5 6 6 7 7 7
7 7 7 6 6 5 5 5 5 5 5 4 4 4 4 4 4 4 3 3 3 4 4 4 4 5 7 5 4 4 4 5 6 5 6 6 6 6 6 6 6 8 7
6 6 6 6 5 5 5 5 5 4 4 4 3 3 3 3 3 3 3 3 4 4 5 5 4 5 7 8 7 7 7 7 6 6 5 5 6 7 6 7 6 7 7
6 6 5 5 5 4 4 4 4 3 3 3 3 3 3 3 3 3 3 3 3 4 4 4 6 7 8 7 8 9 7 7 7 6 5 4 5 5 6 5 7 6 7
Wind_Direction
174 178 179 183 186 186 194 201 199 192 186 186 185 186 190 190 187 191 201 194 195 197 196 198 205 197 195 198 195 197 203 193 225 256 248 252 247 254 251 235 238 237 240
172 172 175 176 176 185 196 199 193 188 185 184 179 183 191 192 188 192 203 198 194 196 197 195 205 197 198 202 199 208 211 206 215 244 253 242 244 254 256 253 252 244 244
166 170 170 175 182 195 198 191 183 183 178 175 176 187 192 191 189 192 195 195 193 194 190 193 200 193 207 208 207 211 213 211 211 227 249 245 255 270 271 269 268 269 260
165 170 178 187 196 198 189 180 178 174 172 177 181 186 188 186 188 185 181 179 179 182 183 187 189 194 208 208 211 216 209 203 202 219 242 251 253 259 242 251 267 258 267
165 175 186 183 184 177 170 169 164 161 169 167 166 172 175 179 184 173 173 175 175 173 174 182 189 192 201 205 211 215 205 208 211 224 242 248 248 237 239 235 251 270 267
165 176 168 156 153 155 162 155 143 146 147 141 149 157 165 176 156 158 164 170 171 173 183 188 196 207 218 217 220 215 202 205 216 220 234 240 254 247 251 238 244 258 271
159 156 147 141 138 139 138 126 131 134 123 126 140 146 138 121 133 140 147 153 151 160 174 181 205 223 201 219 225 226 226 228 215 214 230 240 248 241 230 240 236 240 254
143 147 143 136 130 125 120 119 118 114 112 109 104 103 98 79 100 124 133 136 132 138 144 160 170 187 241 209 207 222 233 249 239 226 236 250 255 250 224 236 247 257 266
127 128 126 126 124 118 115 112 106 103 98 90 85 85 84 61 60 84 118 121 119 107 91 79 89 72 8 103 169 199 116 356 10 132 213 301 335 1 72 168 247 253 270
115 112 112 115 115 113 111 103 95 97 97 92 80 74 78 66 58 74 108 110 103 86 67 54 48 43 31 102 153 164 170 314 3 37 36 9 359 11 70 194 237 260 273
101 100 97 98 103 105 100 94 96 95 91 87 81 66 62 58 58 65 83 99 109 99 77 56 42 54 63 72 89 82 53 40 44 41 33 20 13 3 346 304 265 249 257
88 87 86 86 93 95 93 87 87 94 91 84 83 72 54 50 54 62 73 80 87 91 79 64 55 56 60 59 63 54 54 61 56 48 35 13 0 351 337 324 303 280 264
87 84 85 84 79 80 86 88 84 82 88 87 86 80 62 48 49 59 65 69 72 79 74 67 60 58 59 56 49 48 49 46 39 33 16 354 341 332 333 330 330 320 302
89 85 83 85 81 72 69 71 79 79 87 89 87 84 73 56 45 47 57 65 68 73 70 62 59 58 56 49 42 39 40 41 41 26 3 347 346 348 349 342 330 331 319
90 87 84 83 87 79 70 59 67 59 70 92 89 88 85 72 49 65 76 69 70 78 79 62 53 46 45 40 36 33 30 30 28 18 7 357 351 349 343 339 328 325 317
96 91 89 90 89 91 91 76 57 64 64 66 75 86 76 79 81 74 70 66 63 73 74 64 54 46 42 34 29 24 23 18 9 3 2 356 347 341 337 336 330 324 317
101 100 98 97 97 96 95 97 90 67 61 59 61 68 76 78 74 73 73 69 59 62 67 63 55 46 38 31 25 18 10 3 359 360 357 350 341 335 330 328 326 320 314
94 95 97 96 97 98 97 96 98 97 85 63 52 59 68 71 67 65 69 70 59 52 58 56 47 37 29 22 16 10 3 360 359 355 351 345 340 332 327 324 320 316 311
92 92 90 90 90 93 94 94 93 92 90 85 74 59 58 68 64 57 59 66 67 59 51 46 38 29 21 15 8 3 358 354 351 347 345 342 337 332 326 322 319 317 312
83 92 92 92 91 89 90 92 92 90 86 81 74 64 51 61 63 54 53 57 60 54 46 40 30 23 16 12 5 359 354 350 346 343 338 334 330 325 322 320 320 320 316
86 86 87 87 87 89 91 92 93 93 90 82 67 55 66 74 70 62 56 49 46 43 37 34 27 19 13 5 359 354 350 344 341 337 333 329 326 323 320 317 318 318 316
91 88 85 87 87 86 87 88 90 91 90 84 73 65 63 68 66 60 52 44 38 33 29 28 25 17 7 359 351 345 341 339 337 333 327 324 325 325 324 323 323 321 319
91 92 88 86 88 90 87 85 87 87 84 80 76 71 64 63 60 56 50 41 34 29 23 20 16 9 3 356 350 342 333 329 325 320 318 318 321 322 321 319 320 322 322
91 93 93 91 88 88 89 87 86 87 85 82 76 71 64 59 57 52 43 35 32 28 21 16 10 3 357 353 349 345 339 329 321 312 311 308 312 313 315 316 319 322 321
90 92 93 94 93 93 93 91 89 86 84 81 76 68 60 55 49 40 31 25 23 21 16 10 3 357 353 351 349 343 335 327 323 320 309 303 305 309 315 318 320 321 323
91 93 93 93 94 96 99 98 93 89 86 81 72 63 56 49 41 33 24 17 11 7 3 359 356 353 349 348 345 340 333 331 329 322 310 304 308 315 323 320 322 324 326